Regional Weather Roundup
Issued by NWS

Home | Current Version | Previous Version | Text Only | Print | Product List | Glossary On
Versions: 1 2 3 4 5 6 7 8 9 10 11 12 13 14 15 16 17 18 19 20 21 22 23 24 25 26 27 28 29 30 31 32 33 34 35 36 37 38 39 40 41 42 43 44 45 46 47 48 49 50
000
ASUS43 KLSX 190759
RWRMO

WEATHER SUMMARY FOR MISSOURI
NATIONAL WEATHER SERVICE SPRINGFIELD MO
200 AM CST FRI DEC 19 2014

NOTE: "FAIR" INDICATES FEW OR NO CLOUDS BELOW 12,000 FEET WITH NO
       SIGNIFICANT WEATHER AND/OR OBSTRUCTIONS TO VISIBILITY.
       CURRENT SKY AND/OR WEATHER CONDITIONS ARE NOT AVAILABLE FOR
       CHILLICOTHE AND FARMINGTON.

MOZ001>031-035>038-043-044-053-054-190900-
...NORTHERN AND WESTERN MISSOURI...

CITY           SKY/WX    TMP DP  RH WIND       PRES   REMARKS
KANSAS CTY INT CLOUDY    30  29  96 CALM      30.25S FOG
KANSAS C DTWN  CLOUDY    33  29  85 CALM      30.27R FOG
LEE`S SUMMIT   CLOUDY    31  30  96 CALM      30.26R FOG
ST JOSEPH      CLOUDY    30  27  88 S7        30.27S WCI  23
CHILLICOTHE      N/A     31  27  85 CALM      30.27F
KIRKSVILLE     CLOUDY    29  27  92 E3        30.27F

$$
MOZ066>068-077>081-088>096-101>105-190900-
...SOUTHWEST MISSOURI...

CITY           SKY/WX    TMP DP  RH WIND       PRES   REMARKS
SPRINGFIELD    CLOUDY    37  36  96 SE3       30.20S FOG
JOPLIN         FOG       36  36 100 N3        30.23S VSB 3/4

$$
MOZ032>034-039>042-045>050-055>058-069>072-190900-
...CENTRAL MISSOURI...

CITY           SKY/WX    TMP DP  RH WIND       PRES   REMARKS
COLUMBIA       CLOUDY    32  31  96 E5        30.26S FOG     WCI  27
JEFFERSON CITY CLOUDY    34  31  88 E3        30.28S
ROLLA          FOG       32  31  96 E6        30.22S VSB 1/4 WCI  26
SEDALIA        FOG       33  32  96 E5        30.25F VSB 1   WCI  29
WARRENSBURG    FOG       32  32 100 CALM      30.25S VSB 3/4
OSAGE BEACH    CLOUDY    34  32  93 E3        30.24S VSB 3/4

$$
MOZ051-052-059>065-190900-
...EAST CENTRAL MISSOURI...

CITY           SKY/WX    TMP DP  RH WIND       PRES   REMARKS
ST LOUIS INTL  CLOUDY    34  26  72 NE5       30.28F WCI  30
SPIRIT OF STL  CLOUDY    33  27  78 CALM      30.28S
ST CHARLES     CLOUDY    32  28  85 CALM      30.29S

$$
MOZ072>076-082>087-097>100-106>115-190900-
...SOUTH CENTRAL AND SOUTHEAST MISSOURI...

CITY           SKY/WX    TMP DP  RH WIND       PRES   REMARKS
CAPE GIRARDEAU CLOUDY    35  33  92 N5        30.28S
FARMINGTON     CLOUDY    34  34 100 N3        30.26S
POPLAR BLUFF   CLOUDY    36  31  82 NE6       30.26S
WEST PLAINS    CLOUDY    35  34  96 E3        30.22S FOG

$$


USA.gov is the U.S. government's official web portal to all federal, state and local government web resources and services.